BREEZE-M R/B, 55842

Orbit data source: Space-Track

BREEZE-M R/B, 55842 is space debris in GEO originally from a launch on Sun, 12 Mar 2023 UTC launched from the Tyuratam Missile And Space Complex (TTMTR). Debris objects in space refer to the collection of defunct objects orbiting the Earth. Examples of debris include non-operational satellites, rocket bodies, and fragments generated from explosions, collisions, or faulty payload assembly.

Not visible in the next 10 days
Identifier
55842, 2023-031B
Orbit
GEO
Country
Flag of CISCIS
Related business
Manufacturer
Khrunichev
Mission
Spacecraft
Bus & Motor
BRIZ, Unknown motor
Mass
~1,600 kg wet, 1,600 kg dry
Launch date (UTC)
2023-03-12 (3 years ago)
Launch vehicle
Unknown
Launch site
Tyuratam Missile And Space Complex (TTMTR)
Object type
Payload
Rocket body
Debris
Shape & HBR
Cyl, 2.0 m
Radar Cross Section
15.135 m²

Expand to show TLE details & history
Last TLE update: 3 days ago

TLE from 3 days ago
0 BREEZE-M R/B
1 55842U 23031B   26170.97595483 -.00000172  00000-0  00000+0 0  9999
2 55842   2.8383  79.5316 0067908  10.4948 349.2537  0.98964021 11809
Epoch: 2026-06-19T23:25Z
TLE epoch observation values (Epoch: 2026-06-19T23:25:22.497Z)
Latitude
Longitude
179.60724°
Altitude
35,871.784 km
Speed
3.082 km/s
True Right ascension
05h 16m 35s
True Declination
0° 00' 00"
Sunlit
Object was in daylight at epoch
Visualization orbit readout
Latitude
Unknown
Longitude
Unknown
Altitude
Unknown
Speed
Unknown
Apparent Right ascension
Unknown
Apparent Declination
Unknown
Sunlit
N/A
Visualization observer readout
Local Sidereal Time
23:19:50
Azimuth
Unknown
Elevation
Unknown
Doppler factor
Unknown
Orbital elements
Apogee altitude
36,447.154 km
Perigee altitude
35,869.441 km
Semi-major axis
42,536.435 km
Eccentricity
0.00679
Inclination
2.8383°
RAAN
79.5316°
Arg. of periapsis
10.4948°
True anomaly
349.10738°
Mean anomaly
349.2537°
Eccentric anomaly
349.18066°
Mean motion
0.2474 °/min
Orbital period
1,455.13 mins
BSTAR
0
Loading maneuver chart data...
Computing Atmospheric mass density...
Loading historical data...
Loading historical data...
Loading historical data...
Loading historical data...
Loading historical data...
Loading historical data...
Loading historical data...
Other satellites on launch #31 in the year 2023 (2023-03-12 UTC)

Documentation

Showing up to 5 results
|